Time,TemperatureF,DewpointF,PressureIn,WindDirection,WindDirectionDegrees,WindSpeedMPH,WindSpeedGustMPH,Humidity,HourlyPrecipIn,Conditions,Clouds,dailyrainin,SoftwareType,DateUTC
2013-06-07 00:02:00,53.6,49.5,29.92,NW,315,0.0,0.9,86,0.00,,,0.00,WUHU216HW,2013-06-07 05:02:00,
2013-06-07 00:07:00,53.6,49.5,29.92,NW,315,1.1,1.1,86,0.00,,,0.00,WUHU216HW,2013-06-07 05:07:00,
2013-06-07 00:12:00,53.6,49.5,29.92,NNE,23,0.0,1.1,86,0.00,,,0.00,WUHU216HW,2013-06-07 05:12:00,
2013-06-07 00:17:00,53.6,49.5,29.92,NW,315,0.0,1.1,86,0.00,,,0.00,WUHU216HW,2013-06-07 05:17:00,
2013-06-07 00:22:00,53.5,49.3,29.92,NW,315,0.0,0.4,86,0.00,,,0.00,WUHU216HW,2013-06-07 05:22:00,
2013-06-07 00:27:00,53.3,49.1,29.92,NW,315,0.0,0.4,86,0.00,,,0.00,WUHU216HW,2013-06-07 05:27:00,
2013-06-07 00:32:00,53.3,49.1,29.92,NW,315,0.0,0.2,86,0.00,,,0.00,WUHU216HW,2013-06-07 05:32:00,
2013-06-07 00:37:00,53.1,49.0,29.92,NW,315,0.0,0.7,86,0.00,,,0.00,WUHU216HW,2013-06-07 05:37:00,
2013-06-07 00:42:00,53.1,49.0,29.92,NW,315,1.1,1.1,86,0.00,,,0.00,WUHU216HW,2013-06-07 05:42:00,
2013-06-07 00:47:00,53.1,49.0,29.92,NW,315,0.4,1.1,86,0.00,,,0.00,WUHU216HW,2013-06-07 05:47:00,
2013-06-07 00:52:00,53.3,49.1,29.92,NW,315,1.1,1.1,86,0.00,,,0.00,WUHU216HW,2013-06-07 05:52:00,
2013-06-07 00:57:00,53.3,49.5,29.92,WNW,293,0.2,1.6,87,0.00,,,0.00,WUHU216HW,2013-06-07 05:57:00,
2013-06-07 01:02:00,53.3,49.5,29.92,NW,315,0.7,2.0,87,0.00,,,0.00,WUHU216HW,2013-06-07 06:02:00,
2013-06-07 01:07:00,53.3,49.5,29.92,NW,315,0.4,2.0,87,0.00,,,0.00,WUHU216HW,2013-06-07 06:07:00,
2013-06-07 01:12:00,53.3,49.5,29.92,NW,315,0.2,1.3,87,0.00,,,0.00,WUHU216HW,2013-06-07 06:12:00,
2013-06-07 01:17:00,53.3,49.5,29.92,NW,315,0.7,1.1,87,0.00,,,0.00,WUHU216HW,2013-06-07 06:17:00,
2013-06-07 01:22:00,53.3,49.1,29.92,NW,315,0.4,1.1,86,0.00,,,0.00,WUHU216HW,2013-06-07 06:22:00,
2013-06-07 01:27:00,53.3,49.1,29.91,NW,315,0.0,0.9,86,0.00,,,0.00,WUHU216HW,2013-06-07 06:27:00,
2013-06-07 01:32:00,53.3,49.1,29.91,NW,315,0.2,0.4,86,0.00,,,0.00,WUHU216HW,2013-06-07 06:32:00,
2013-06-07 01:37:00,53.3,49.1,29.92,NW,315,0.2,0.4,86,0.00,,,0.00,WUHU216HW,2013-06-07 06:37:00,
2013-06-07 01:42:00,53.3,49.1,29.92,NW,315,0.0,0.9,86,0.00,,,0.00,WUHU216HW,2013-06-07 06:42:00,
2013-06-07 01:47:00,53.3,49.1,29.92,NW,315,0.2,0.9,86,0.00,,,0.00,WUHU216HW,2013-06-07 06:47:00,
2013-06-07 01:52:00,53.3,48.9,29.91,NW,315,0.0,0.9,85,0.00,,,0.00,WUHU216HW,2013-06-07 06:52:00,
2013-06-07 01:57:00,53.5,49.1,29.91,NW,315,0.0,0.4,85,0.00,,,0.00,WUHU216HW,2013-06-07 06:57:00,
2013-06-07 02:02:00,53.5,48.8,29.91,NW,315,0.2,0.9,84,0.00,,,0.00,WUHU216HW,2013-06-07 07:02:00,
2013-06-07 02:07:00,53.5,48.8,29.91,NW,315,0.4,0.9,84,0.00,,,0.00,WUHU216HW,2013-06-07 07:07:00,
2013-06-07 02:12:00,53.5,48.8,29.91,NW,315,0.0,0.4,84,0.00,,,0.00,WUHU216HW,2013-06-07 07:12:00,
2013-06-07 02:17:00,53.5,48.8,29.91,NW,315,0.0,0.4,84,0.00,,,0.00,WUHU216HW,2013-06-07 07:17:00,
2013-06-07 02:22:00,53.3,48.6,29.91,NW,315,0.4,1.6,84,0.00,,,0.00,WUHU216HW,2013-06-07 07:22:00,
2013-06-07 02:27:00,53.5,48.8,29.91,NW,315,1.1,1.6,84,0.00,,,0.00,WUHU216HW,2013-06-07 07:27:00,
2013-06-07 02:32:00,53.5,48.8,29.91,WNW,293,0.4,1.6,84,0.00,,,0.00,WUHU216HW,2013-06-07 07:32:00,
2013-06-07 02:37:00,53.3,48.6,29.91,NW,315,0.7,1.6,84,0.00,,,0.00,WUHU216HW,2013-06-07 07:37:00,
2013-06-07 02:42:00,53.3,48.9,29.91,NW,315,0.9,1.6,85,0.00,,,0.00,WUHU216HW,2013-06-07 07:42:00,
2013-06-07 02:47:00,53.3,48.6,29.91,NW,315,0.4,1.6,84,0.00,,,0.00,WUHU216HW,2013-06-07 07:47:00,
2013-06-07 02:52:00,53.3,48.6,29.91,NW,315,1.3,1.3,84,0.00,,,0.00,WUHU216HW,2013-06-07 07:52:00,
2013-06-07 02:57:00,53.3,48.6,29.91,WNW,293,0.0,1.3,84,0.00,,,0.00,WUHU216HW,2013-06-07 07:57:00,
2013-06-07 03:02:00,53.3,48.6,29.91,NW,315,0.9,1.3,84,0.00,,,0.00,WUHU216HW,2013-06-07 08:02:00,
2013-06-07 03:07:00,53.3,48.6,29.91,NW,315,0.7,1.1,84,0.00,,,0.00,WUHU216HW,2013-06-07 08:07:00,
2013-06-07 03:12:00,53.3,48.6,29.91,NW,315,0.7,1.6,84,0.00,,,0.00,WUHU216HW,2013-06-07 08:12:00,
2013-06-07 03:17:00,53.3,48.6,29.90,NW,315,1.1,1.6,84,0.00,,,0.00,WUHU216HW,2013-06-07 08:17:00,
2013-06-07 03:22:00,53.3,48.6,29.91,NW,315,0.7,1.1,84,0.00,,,0.00,WUHU216HW,2013-06-07 08:22:00,
2013-06-07 03:27:00,53.3,48.6,29.91,NW,315,0.4,1.1,84,0.00,,,0.00,WUHU216HW,2013-06-07 08:27:00,
2013-06-07 03:32:00,53.3,48.6,29.91,NW,315,0.4,1.1,84,0.00,,,0.00,WUHU216HW,2013-06-07 08:32:00,
2013-06-07 03:37:00,53.3,48.6,29.91,NW,315,0.0,1.1,84,0.00,,,0.00,WUHU216HW,2013-06-07 08:37:00,
2013-06-07 03:42:00,53.3,48.6,29.91,NW,315,0.0,1.1,84,0.00,,,0.00,WUHU216HW,2013-06-07 08:42:00,
2013-06-07 03:47:00,53.1,48.4,29.91,NW,315,0.4,1.3,84,0.00,,,0.00,WUHU216HW,2013-06-07 08:47:00,
2013-06-07 03:52:00,53.1,48.7,29.91,NW,315,0.4,1.3,85,0.00,,,0.00,WUHU216HW,2013-06-07 08:52:00,
2013-06-07 03:57:00,53.1,48.7,29.91,NW,315,0.0,0.9,85,0.00,,,0.00,WUHU216HW,2013-06-07 08:57:00,
2013-06-07 04:02:00,53.1,48.7,29.91,NW,315,0.0,0.9,85,0.00,,,0.00,WUHU216HW,2013-06-07 09:02:00,
2013-06-07 04:07:00,53.1,48.7,29.91,NW,315,0.0,0.0,85,0.00,,,0.00,WUHU216HW,2013-06-07 09:07:00,
2013-06-07 04:12:00,53.1,48.7,29.91,NW,315,0.0,0.7,85,0.00,,,0.00,WUHU216HW,2013-06-07 09:12:00,
2013-06-07 04:17:00,53.1,48.7,29.91,NW,315,0.0,0.7,85,0.00,,,0.00,WUHU216HW,2013-06-07 09:17:00,
2013-06-07 04:22:00,53.1,49.0,29.91,NW,315,0.2,1.6,86,0.00,,,0.00,WUHU216HW,2013-06-07 09:22:00,
2013-06-07 04:27:00,53.1,49.0,29.91,NW,315,0.0,1.6,86,0.00,,,0.00,WUHU216HW,2013-06-07 09:27:00,
2013-06-07 04:32:00,53.1,48.7,29.91,NW,315,0.0,1.1,85,0.00,,,0.00,WUHU216HW,2013-06-07 09:32:00,
2013-06-07 04:37:00,53.1,48.4,29.91,NW,315,1.1,2.0,84,0.00,,,0.00,WUHU216HW,2013-06-07 09:37:00,
2013-06-07 04:42:00,53.1,48.4,29.91,NW,315,0.2,2.0,84,0.00,,,0.00,WUHU216HW,2013-06-07 09:42:00,
2013-06-07 04:47:00,53.3,48.6,29.91,NW,315,0.4,1.3,84,0.00,,,0.00,WUHU216HW,2013-06-07 09:47:00,
2013-06-07 04:52:00,53.3,48.2,29.91,NW,315,0.4,1.3,83,0.00,,,0.00,WUHU216HW,2013-06-07 09:52:00,
2013-06-07 04:57:00,53.1,48.1,29.91,NW,315,1.3,1.3,83,0.00,,,0.00,WUHU216HW,2013-06-07 09:57:00,
2013-06-07 05:02:00,53.1,48.1,29.91,NW,315,0.0,1.3,83,0.00,,,0.00,WUHU216HW,2013-06-07 10:02:00,
2013-06-07 05:07:00,53.1,48.1,29.91,NW,315,0.9,1.3,83,0.00,,,0.00,WUHU216HW,2013-06-07 10:07:00,
2013-06-07 05:12:00,52.9,47.9,29.91,NW,315,0.4,1.6,83,0.00,,,0.00,WUHU216HW,2013-06-07 10:12:00,
2013-06-07 05:17:00,52.9,47.9,29.91,NW,315,0.0,1.6,83,0.00,,,0.00,WUHU216HW,2013-06-07 10:17:00,
2013-06-07 05:22:00,52.9,47.6,29.91,NNW,338,0.0,0.9,82,0.00,,,0.00,WUHU216HW,2013-06-07 10:22:00,
2013-06-07 05:27:00,52.9,47.6,29.91,NW,315,0.4,1.1,82,0.00,,,0.00,WUHU216HW,2013-06-07 10:27:00,
2013-06-07 05:32:00,52.9,47.6,29.91,NW,315,0.4,1.1,82,0.00,,,0.00,WUHU216HW,2013-06-07 10:32:00,
2013-06-07 05:37:00,52.9,47.9,29.92,NW,315,1.1,1.1,83,0.00,,,0.00,WUHU216HW,2013-06-07 10:37:00,
2013-06-07 05:42:00,52.9,47.9,29.92,NW,315,0.0,1.6,83,0.00,,,0.00,WUHU216HW,2013-06-07 10:42:00,
2013-06-07 05:47:00,52.9,47.9,29.92,NW,315,0.4,1.6,83,0.00,,,0.00,WUHU216HW,2013-06-07 10:47:00,
2013-06-07 05:52:00,52.9,48.3,29.92,NW,315,1.3,1.3,84,0.00,,,0.00,WUHU216HW,2013-06-07 10:52:00,
2013-06-07 05:57:00,52.9,48.3,29.92,NW,315,0.0,1.3,84,0.00,,,0.00,WUHU216HW,2013-06-07 10:57:00,
2013-06-07 06:02:00,52.9,48.3,29.92,NW,315,0.0,1.3,84,0.00,,,0.00,WUHU216HW,2013-06-07 11:02:00,
2013-06-07 06:07:00,52.9,48.3,29.92,NW,315,0.0,0.9,84,0.00,,,0.00,WUHU216HW,2013-06-07 11:07:00,
2013-06-07 06:12:00,53.1,48.4,29.92,NW,315,0.2,1.8,84,0.00,,,0.00,WUHU216HW,2013-06-07 11:12:00,
2013-06-07 06:17:00,53.1,48.4,29.92,NW,315,0.0,1.8,84,0.00,,,0.00,WUHU216HW,2013-06-07 11:17:00,
2013-06-07 06:22:00,53.3,48.2,29.92,NW,315,0.2,1.1,83,0.00,,,0.00,WUHU216HW,2013-06-07 11:22:00,
2013-06-07 06:27:00,53.3,48.2,29.92,NW,315,0.4,1.1,83,0.00,,,0.00,WUHU216HW,2013-06-07 11:27:00,
2013-06-07 06:33:00,53.5,48.4,29.92,NW,315,0.4,1.1,83,0.00,,,0.00,WUHU216HW,2013-06-07 11:33:00,
2013-06-07 06:37:00,53.3,48.0,29.92,NNW,338,0.4,1.8,82,0.00,,,0.00,WUHU216HW,2013-06-07 11:37:00,
2013-06-07 06:43:00,53.5,48.2,29.92,NNW,338,0.0,1.8,82,0.00,,,0.00,WUHU216HW,2013-06-07 11:43:00,
2013-06-07 06:48:00,53.6,48.6,29.93,NW,315,0.7,1.1,83,0.00,,,0.00,WUHU216HW,2013-06-07 11:48:00,
2013-06-07 06:53:00,53.5,48.2,29.92,NW,315,0.7,1.6,82,0.00,,,0.00,WUHU216HW,2013-06-07 11:53:00,
2013-06-07 06:58:00,53.5,48.2,29.93,NW,315,1.1,2.2,82,0.00,,,0.00,WUHU216HW,2013-06-07 11:58:00,
2013-06-07 07:03:00,53.5,48.4,29.93,NW,315,0.7,2.2,83,0.00,,,0.00,WUHU216HW,2013-06-07 12:03:00,
2013-06-07 07:08:00,53.5,48.4,29.93,NW,315,0.4,1.8,83,0.00,,,0.00,WUHU216HW,2013-06-07 12:08:00,
2013-06-07 07:13:00,53.5,48.4,29.92,NW,315,0.9,1.8,83,0.00,,,0.00,WUHU216HW,2013-06-07 12:13:00,
2013-06-07 07:18:00,53.5,48.2,29.93,NW,315,1.6,1.8,82,0.00,,,0.00,WUHU216HW,2013-06-07 12:18:00,
2013-06-07 07:23:00,53.6,48.6,29.93,NW,315,0.0,1.8,83,0.00,,,0.00,WUHU216HW,2013-06-07 12:23:00,
2013-06-07 07:28:00,53.6,48.3,29.93,WNW,293,0.4,1.6,82,0.00,,,0.00,WUHU216HW,2013-06-07 12:28:00,
2013-06-07 07:33:00,53.6,48.3,29.94,NW,315,0.7,1.6,82,0.00,,,0.00,WUHU216HW,2013-06-07 12:33:00,
2013-06-07 07:38:00,53.6,48.3,29.94,NW,315,0.4,1.3,82,0.00,,,0.00,WUHU216HW,2013-06-07 12:38:00,
2013-06-07 07:42:00,53.8,48.5,29.94,NW,315,0.7,1.8,82,0.00,,,0.00,WUHU216HW,2013-06-07 12:42:00,
2013-06-07 07:48:00,53.8,48.5,29.94,NW,315,0.4,1.8,82,0.00,,,0.00,WUHU216HW,2013-06-07 12:48:00,
2013-06-07 07:53:00,54.0,48.6,29.94,NW,315,1.6,1.6,82,0.00,,,0.00,WUHU216HW,2013-06-07 12:53:00,
2013-06-07 07:58:00,54.0,48.3,29.94,NNW,338,0.9,1.8,81,0.00,,,0.00,WUHU216HW,2013-06-07 12:58:00,
2013-06-07 08:03:00,54.2,48.5,29.94,NW,315,1.6,1.8,81,0.00,,,0.00,WUHU216HW,2013-06-07 13:03:00,
2013-06-07 08:08:00,54.2,48.2,29.94,NW,315,0.2,1.8,80,0.00,,,0.00,WUHU216HW,2013-06-07 13:08:00,
2013-06-07 08:13:00,54.4,48.7,29.94,NW,315,0.4,1.8,81,0.00,,,0.00,WUHU216HW,2013-06-07 13:13:00,
2013-06-07 08:18:00,54.4,48.3,29.94,NW,315,1.8,2.0,80,0.00,,,0.00,WUHU216HW,2013-06-07 13:18:00,
2013-06-07 08:23:00,54.5,48.5,29.94,NW,315,1.6,2.0,80,0.00,,,0.00,WUHU216HW,2013-06-07 13:23:00,
2013-06-07 08:28:00,55.1,49.0,29.95,WNW,293,0.4,1.8,80,0.00,,,0.00,WUHU216HW,2013-06-07 13:28:00,
2013-06-07 08:33:00,55.6,49.9,29.95,NW,315,0.7,2.2,81,0.00,,,0.00,WUHU216HW,2013-06-07 13:33:00,
2013-06-07 08:38:00,56.0,49.9,29.95,NW,315,2.0,2.2,80,0.00,,,0.00,WUHU216HW,2013-06-07 13:38:00,
2013-06-07 08:43:00,56.0,49.5,29.95,NW,315,1.1,2.0,79,0.00,,,0.00,WUHU216HW,2013-06-07 13:43:00,
2013-06-07 08:48:00,56.2,49.7,29.95,NNW,338,1.8,2.0,79,0.00,,,0.00,WUHU216HW,2013-06-07 13:48:00,
2013-06-07 08:53:00,56.3,49.9,29.95,NNW,338,0.4,1.8,79,0.00,,,0.00,WUHU216HW,2013-06-07 13:53:00,
2013-06-07 08:58:00,56.3,49.9,29.96,NW,315,1.1,2.5,79,0.00,,,0.00,WUHU216HW,2013-06-07 13:58:00,
2013-06-07 09:03:00,56.5,50.0,29.95,NNE,23,0.9,2.5,79,0.00,,,0.00,WUHU216HW,2013-06-07 14:03:00,
2013-06-07 09:08:00,56.7,50.2,29.96,West,270,1.6,1.6,79,0.00,,,0.00,WUHU216HW,2013-06-07 14:08:00,
2013-06-07 09:13:00,56.5,49.7,29.96,NW,315,0.9,1.8,78,0.00,,,0.00,WUHU216HW,2013-06-07 14:13:00,
2013-06-07 09:18:00,56.5,50.0,29.96,NW,315,1.1,1.8,79,0.00,,,0.00,WUHU216HW,2013-06-07 14:18:00,
2013-06-07 09:22:00,56.5,49.7,29.96,NNE,23,0.4,2.2,78,0.00,,,0.00,WUHU216HW,2013-06-07 14:22:00,
2013-06-07 09:27:00,56.7,50.2,29.96,NW,315,0.2,2.2,79,0.00,,,0.00,WUHU216HW,2013-06-07 14:27:00,
2013-06-07 09:32:00,57.2,50.8,29.96,NE,45,0.4,1.8,79,0.00,,,0.00,WUHU216HW,2013-06-07 14:32:00,
2013-06-07 09:37:00,58.7,51.8,29.96,NW,315,1.8,1.8,78,0.00,,,0.00,WUHU216HW,2013-06-07 14:37:00,
2013-06-07 09:42:00,59.6,52.0,29.96,NE,45,1.1,1.8,76,0.00,,,0.00,WUHU216HW,2013-06-07 14:42:00,
2013-06-07 09:47:00,60.1,52.2,29.96,West,270,1.6,2.5,75,0.00,,,0.00,WUHU216HW,2013-06-07 14:47:00,
2013-06-07 09:52:00,60.7,52.0,29.96,NE,45,1.1,2.5,73,0.00,,,0.00,WUHU216HW,2013-06-07 14:52:00,
2013-06-07 09:57:00,61.2,52.9,29.96,East,90,0.0,1.6,74,0.00,,,0.00,WUHU216HW,2013-06-07 14:57:00,
2013-06-07 10:02:00,62.6,53.8,29.96,NW,315,0.7,2.0,73,0.00,,,0.00,WUHU216HW,2013-06-07 15:02:00,
2013-06-07 10:07:00,62.8,53.6,29.96,North,0,0.4,2.0,72,0.00,,,0.00,WUHU216HW,2013-06-07 15:07:00,
2013-06-07 10:12:00,63.0,53.8,29.96,NW,315,1.1,1.3,72,0.00,,,0.00,WUHU216HW,2013-06-07 15:12:00,
2013-06-07 10:17:00,62.3,52.4,29.96,NW,315,0.9,1.8,70,0.00,,,0.00,WUHU216HW,2013-06-07 15:17:00,
2013-06-07 10:22:00,61.6,51.8,29.96,NNW,338,1.1,1.8,70,0.00,,,0.00,WUHU216HW,2013-06-07 15:22:00,
2013-06-07 10:27:00,61.6,52.1,29.96,NNE,23,0.7,1.8,71,0.00,,,0.00,WUHU216HW,2013-06-07 15:27:00,
2013-06-07 10:32:00,62.1,53.4,29.96,ENE,68,0.9,1.8,73,0.00,,,0.00,WUHU216HW,2013-06-07 15:32:00,
2013-06-07 10:37:00,62.1,53.0,29.96,NW,315,0.7,1.1,72,0.00,,,0.00,WUHU216HW,2013-06-07 15:37:00,
2013-06-07 10:42:00,61.2,51.9,29.96,NW,315,0.4,1.3,71,0.00,,,0.00,WUHU216HW,2013-06-07 15:42:00,
2013-06-07 10:47:00,61.2,52.2,29.96,West,270,1.3,1.3,72,0.00,,,0.00,WUHU216HW,2013-06-07 15:47:00,
2013-06-07 10:52:00,61.2,52.2,29.96,NW,315,1.3,1.6,72,0.00,,,0.00,WUHU216HW,2013-06-07 15:52:00,
2013-06-07 10:57:00,61.2,52.6,29.95,West,270,0.0,1.6,73,0.00,,,0.00,WUHU216HW,2013-06-07 15:57:00,
2013-06-07 11:02:00,61.6,52.5,29.95,NNW,338,0.2,1.8,72,0.00,,,0.00,WUHU216HW,2013-06-07 16:02:00,
2013-06-07 11:07:00,62.1,53.0,29.95,WNW,293,0.7,1.8,72,0.00,,,0.00,WUHU216HW,2013-06-07 16:07:00,
2013-06-07 11:12:00,62.1,52.7,29.95,NW,315,0.4,2.0,71,0.00,,,0.00,WUHU216HW,2013-06-07 16:12:00,
2013-06-07 11:17:00,62.3,53.1,29.95,NW,315,0.7,2.0,72,0.00,,,0.00,WUHU216HW,2013-06-07 16:17:00,
2013-06-07 11:22:00,62.5,52.9,29.95,NW,315,0.9,2.0,71,0.00,,,0.00,WUHU216HW,2013-06-07 16:22:00,
2013-06-07 11:27:00,62.6,52.7,29.95,NW,315,0.4,1.1,70,0.00,,,0.00,WUHU216HW,2013-06-07 16:27:00,
2013-06-07 11:32:00,63.7,53.8,29.95,NNW,338,0.0,1.3,70,0.00,,,0.00,WUHU216HW,2013-06-07 16:32:00,
2013-06-07 11:37:00,63.7,53.4,29.95,NW,315,0.7,1.3,69,0.00,,,0.00,WUHU216HW,2013-06-07 16:37:00,
2013-06-07 11:42:00,63.9,54.0,29.95,NW,315,1.6,1.6,70,0.00,,,0.00,WUHU216HW,2013-06-07 16:42:00,
2013-06-07 11:47:00,65.2,54.4,29.95,WNW,293,2.0,2.0,68,0.00,,,0.00,WUHU216HW,2013-06-07 16:47:00,
2013-06-07 11:52:00,65.2,53.5,29.95,WSW,248,0.4,2.5,66,0.00,,,0.00,WUHU216HW,2013-06-07 16:52:00,
2013-06-07 11:57:00,66.6,54.5,29.95,NW,315,1.8,2.7,65,0.00,,,0.00,WUHU216HW,2013-06-07 16:57:00,
2013-06-07 12:02:00,66.8,54.2,29.94,NW,315,1.3,2.7,64,0.00,,,0.00,WUHU216HW,2013-06-07 17:02:00,
2013-06-07 12:07:00,67.3,54.3,29.94,NW,315,2.5,2.5,63,0.00,,,0.00,WUHU216HW,2013-06-07 17:07:00,
2013-06-07 12:12:00,67.3,54.7,29.94,NW,315,1.1,3.6,64,0.00,,,0.00,WUHU216HW,2013-06-07 17:12:00,
2013-06-07 12:17:00,68.8,56.5,29.94,SSE,158,1.6,3.6,65,0.00,,,0.00,WUHU216HW,2013-06-07 17:17:00,
2013-06-07 12:22:00,70.0,56.0,29.94,SE,135,1.6,2.5,61,0.00,,,0.00,WUHU216HW,2013-06-07 17:22:00,
2013-06-07 12:27:00,70.0,55.6,29.94,NW,315,1.1,2.0,60,0.00,,,0.00,WUHU216HW,2013-06-07 17:27:00,
2013-06-07 12:32:00,69.7,56.1,29.93,WNW,293,0.4,2.0,62,0.00,,,0.00,WUHU216HW,2013-06-07 17:32:00,
2013-06-07 12:37:00,70.4,56.3,29.93,WNW,293,0.7,2.0,61,0.00,,,0.00,WUHU216HW,2013-06-07 17:37:00,
2013-06-07 12:42:00,70.6,56.1,29.93,SE,135,2.5,4.5,60,0.00,,,0.00,WUHU216HW,2013-06-07 17:42:00,
2013-06-07 12:47:00,71.3,56.7,29.93,NW,315,0.2,4.5,60,0.00,,,0.00,WUHU216HW,2013-06-07 17:47:00,
2013-06-07 12:52:00,72.0,57.4,29.93,West,270,0.2,3.4,60,0.00,,,0.00,WUHU216HW,2013-06-07 17:52:00,
2013-06-07 12:57:00,72.4,57.7,29.93,SE,135,0.7,3.4,60,0.00,,,0.00,WUHU216HW,2013-06-07 17:57:00,
2013-06-07 13:02:00,72.5,57.3,29.93,NNW,338,1.1,3.4,59,0.00,,,0.00,WUHU216HW,2013-06-07 18:02:00,
2013-06-07 13:07:00,72.7,56.5,29.92,West,270,0.4,3.4,57,0.00,,,0.00,WUHU216HW,2013-06-07 18:07:00,
2013-06-07 13:12:00,72.4,55.7,29.92,NW,315,0.9,3.1,56,0.00,,,0.00,WUHU216HW,2013-06-07 18:12:00,
2013-06-07 13:17:00,72.9,56.7,29.92,NW,315,0.4,2.7,57,0.00,,,0.00,WUHU216HW,2013-06-07 18:17:00,
2013-06-07 13:22:00,73.6,55.8,29.92,ESE,113,1.1,4.5,54,0.00,,,0.00,WUHU216HW,2013-06-07 18:22:00,
2013-06-07 13:28:00,73.6,55.8,29.92,WNW,293,1.8,4.5,54,0.00,,,0.00,WUHU216HW,2013-06-07 18:28:00,
2013-06-07 13:33:00,73.6,55.4,29.92,SE,135,1.1,3.4,53,0.00,,,0.00,WUHU216HW,2013-06-07 18:33:00,
2013-06-07 13:38:00,74.2,55.4,29.92,SE,135,2.0,4.0,52,0.00,,,0.00,WUHU216HW,2013-06-07 18:38:00,
2013-06-07 13:43:00,74.5,56.3,29.92,NW,315,1.1,4.7,53,0.00,,,0.00,WUHU216HW,2013-06-07 18:43:00,
2013-06-07 13:48:00,73.8,55.5,29.92,SE,135,0.7,4.7,53,0.00,,,0.00,WUHU216HW,2013-06-07 18:48:00,
2013-06-07 13:53:00,74.2,54.4,29.92,SE,135,1.3,3.4,50,0.00,,,0.00,WUHU216HW,2013-06-07 18:53:00,
2013-06-07 13:58:00,75.1,56.8,29.92,SE,135,1.3,2.5,53,0.00,,,0.00,WUHU216HW,2013-06-07 18:58:00,
2013-06-07 14:04:00,75.6,57.8,29.92,SW,225,0.7,4.9,54,0.00,,,0.00,WUHU216HW,2013-06-07 19:04:00,
2013-06-07 14:09:00,75.1,56.8,29.92,NW,315,0.2,4.9,53,0.00,,,0.00,WUHU216HW,2013-06-07 19:09:00,
2013-06-07 14:14:00,75.8,58.0,29.91,SSW,203,1.3,2.5,54,0.00,,,0.00,WUHU216HW,2013-06-07 19:14:00,
2013-06-07 14:19:00,75.2,57.0,29.91,WSW,248,0.2,1.8,53,0.00,,,0.00,WUHU216HW,2013-06-07 19:19:00,
2013-06-07 14:24:00,76.3,55.8,29.91,NW,315,1.1,2.2,49,0.00,,,0.00,WUHU216HW,2013-06-07 19:24:00,
2013-06-07 14:29:00,75.8,55.9,29.91,West,270,0.9,2.7,50,0.00,,,0.00,WUHU216HW,2013-06-07 19:29:00,
2013-06-07 14:34:00,76.3,56.4,29.91,NW,315,0.7,3.6,50,0.00,,,0.00,WUHU216HW,2013-06-07 19:34:00,
2013-06-07 14:39:00,76.0,56.1,29.91,NNW,338,1.3,3.6,50,0.00,,,0.00,WUHU216HW,2013-06-07 19:39:00,
2013-06-07 14:44:00,77.0,56.4,29.91,WNW,293,1.1,2.9,49,0.00,,,0.00,WUHU216HW,2013-06-07 19:44:00,
2013-06-07 14:49:00,75.2,53.7,29.91,NW,315,2.2,2.9,47,0.00,,,0.00,WUHU216HW,2013-06-07 19:49:00,
2013-06-07 14:55:00,71.6,53.0,29.91,NW,315,0.7,2.7,52,0.00,,,0.00,WUHU216HW,2013-06-07 19:55:00,
2013-06-07 15:00:00,70.4,52.4,29.91,North,0,0.4,2.2,53,0.00,,,0.00,WUHU216HW,2013-06-07 20:00:00,
2013-06-07 15:05:00,70.6,53.6,29.91,North,0,0.0,2.2,55,0.00,,,0.00,WUHU216HW,2013-06-07 20:05:00,
2013-06-07 15:10:00,72.5,55.4,29.91,SE,135,0.9,2.2,55,0.00,,,0.00,WUHU216HW,2013-06-07 20:10:00,
2013-06-07 15:15:00,73.4,54.2,29.91,NW,315,0.4,2.5,51,0.00,,,0.00,WUHU216HW,2013-06-07 20:15:00,
2013-06-07 15:20:00,72.5,53.4,29.91,NW,315,0.4,2.5,51,0.00,,,0.00,WUHU216HW,2013-06-07 20:20:00,
2013-06-07 15:26:00,74.5,56.7,29.91,NE,45,0.4,2.0,54,0.00,,,0.00,WUHU216HW,2013-06-07 20:26:00,
2013-06-07 15:31:00,78.5,59.4,29.91,ENE,68,2.2,3.4,52,0.00,,,0.00,WUHU216HW,2013-06-07 20:31:00,
2013-06-07 15:36:00,81.2,59.0,29.91,ESE,113,3.6,5.1,47,0.00,,,0.00,WUHU216HW,2013-06-07 20:36:00,
2013-06-07 15:41:00,78.3,52.1,29.90,NW,315,0.9,5.1,40,0.00,,,0.00,WUHU216HW,2013-06-07 20:41:00,
2013-06-07 15:46:00,75.2,51.8,29.90,NW,315,0.0,2.7,44,0.00,,,0.00,WUHU216HW,2013-06-07 20:46:00,
2013-06-07 15:51:00,74.3,52.1,29.90,NNW,338,0.2,1.8,46,0.00,,,0.00,WUHU216HW,2013-06-07 20:51:00,
2013-06-07 15:56:00,73.8,52.2,29.90,NW,315,1.1,2.5,47,0.00,,,0.00,WUHU216HW,2013-06-07 20:56:00,
2013-06-07 16:02:00,74.9,53.3,29.90,NW,315,0.4,2.7,47,0.00,,,0.00,WUHU216HW,2013-06-07 21:02:00,
2013-06-07 16:07:00,76.1,51.9,29.90,NW,315,1.1,2.5,43,0.00,,,0.00,WUHU216HW,2013-06-07 21:07:00,
2013-06-07 16:13:00,73.4,49.5,29.90,NW,315,0.9,2.5,43,0.00,,,0.00,WUHU216HW,2013-06-07 21:13:00,
2013-06-07 16:18:00,72.2,49.5,29.90,NW,315,0.7,1.6,45,0.00,,,0.00,WUHU216HW,2013-06-07 21:18:00,
2013-06-07 16:23:00,71.6,49.7,29.89,NNE,23,1.1,1.6,46,0.00,,,0.00,WUHU216HW,2013-06-07 21:23:00,
2013-06-07 16:28:00,72.0,49.4,29.89,NW,315,0.4,1.1,45,0.00,,,0.00,WUHU216HW,2013-06-07 21:28:00,
2013-06-07 16:33:00,72.0,50.6,29.89,NW,315,0.7,2.0,47,0.00,,,0.00,WUHU216HW,2013-06-07 21:33:00,
2013-06-07 16:38:00,71.8,50.4,29.89,WNW,293,1.1,2.0,47,0.00,,,0.00,WUHU216HW,2013-06-07 21:38:00,
2013-06-07 16:43:00,72.0,50.6,29.89,North,0,1.1,1.8,47,0.00,,,0.00,WUHU216HW,2013-06-07 21:43:00,
2013-06-07 16:48:00,71.8,49.8,29.89,NW,315,1.6,1.6,46,0.00,,,0.00,WUHU216HW,2013-06-07 21:48:00,
2013-06-07 16:54:00,71.8,50.4,29.89,NW,315,0.4,1.6,47,0.00,,,0.00,WUHU216HW,2013-06-07 21:54:00,
2013-06-07 16:59:00,72.4,51.5,29.89,NNW,338,0.4,1.8,48,0.00,,,0.00,WUHU216HW,2013-06-07 21:59:00,
2013-06-07 17:04:00,72.7,50.6,29.89,NW,315,0.4,1.8,46,0.00,,,0.00,WUHU216HW,2013-06-07 22:04:00,
2013-06-07 17:09:00,73.4,51.3,29.89,North,0,0.0,1.8,46,0.00,,,0.00,WUHU216HW,2013-06-07 22:09:00,
2013-06-07 17:15:00,74.3,51.6,29.89,NNW,338,0.4,1.8,45,0.00,,,0.00,WUHU216HW,2013-06-07 22:15:00,
2013-06-07 17:20:00,74.7,51.3,29.89,NW,315,0.7,1.8,44,0.00,,,0.00,WUHU216HW,2013-06-07 22:20:00,
2013-06-07 17:25:00,74.5,51.1,29.89,NNE,23,1.1,1.6,44,0.00,,,0.00,WUHU216HW,2013-06-07 22:25:00,
2013-06-07 17:31:00,75.6,50.9,29.89,NE,45,1.1,1.8,42,0.00,,,0.00,WUHU216HW,2013-06-07 22:31:00,
2013-06-07 17:37:00,76.0,51.2,29.89,NNW,338,0.9,1.8,42,0.00,,,0.00,WUHU216HW,2013-06-07 22:37:00,
2013-06-07 17:42:00,75.8,52.3,29.89,SE,135,1.3,1.8,44,0.00,,,0.00,WUHU216HW,2013-06-07 22:42:00,
2013-06-07 17:47:00,76.7,51.8,29.89,NW,315,0.0,1.8,42,0.00,,,0.00,WUHU216HW,2013-06-07 22:47:00,
2013-06-07 17:52:00,76.7,51.8,29.89,SE,135,0.0,1.8,42,0.00,,,0.00,WUHU216HW,2013-06-07 22:52:00,
2013-06-07 17:57:00,74.5,50.5,29.89,NW,315,1.1,1.8,43,0.00,,,0.00,WUHU216HW,2013-06-07 22:57:00,
2013-06-07 18:02:00,72.4,48.5,29.89,WNW,293,0.4,1.6,43,0.00,,,0.00,WUHU216HW,2013-06-07 23:02:00,
2013-06-07 18:08:00,71.5,48.9,29.88,NW,315,0.0,1.6,45,0.00,,,0.00,WUHU216HW,2013-06-07 23:08:00,
2013-06-07 18:13:00,70.9,49.0,29.89,SSE,158,0.4,1.6,46,0.00,,,0.00,WUHU216HW,2013-06-07 23:13:00,
2013-06-07 18:18:00,70.7,48.9,29.88,ENE,68,0.0,1.8,46,0.00,,,0.00,WUHU216HW,2013-06-07 23:18:00,
2013-06-07 18:23:00,70.6,48.7,29.89,NW,315,0.0,1.8,46,0.00,,,0.00,WUHU216HW,2013-06-07 23:23:00,
2013-06-07 18:28:00,70.2,49.0,29.89,North,0,0.4,1.1,47,0.00,,,0.00,WUHU216HW,2013-06-07 23:28:00,
2013-06-07 18:33:00,69.8,48.6,29.88,NW,315,0.7,1.3,47,0.00,,,0.00,WUHU216HW,2013-06-07 23:33:00,
2013-06-07 18:38:00,69.5,48.3,29.88,WSW,248,0.4,1.8,47,0.00,,,0.00,WUHU216HW,2013-06-07 23:38:00,
2013-06-07 18:43:00,69.5,48.9,29.88,WNW,293,0.0,1.8,48,0.00,,,0.00,WUHU216HW,2013-06-07 23:43:00,
2013-06-07 18:48:00,69.3,48.2,29.88,NW,315,0.4,0.7,47,0.00,,,0.00,WUHU216HW,2013-06-07 23:48:00,
2013-06-07 18:53:00,69.1,48.0,29.88,WNW,293,0.7,1.1,47,0.00,,,0.00,WUHU216HW,2013-06-07 23:53:00,
2013-06-07 18:59:00,69.1,48.0,29.88,NW,315,0.0,1.1,47,0.00,,,0.00,WUHU216HW,2013-06-07 23:59:00,
2013-06-07 19:04:00,68.9,47.8,29.88,North,0,0.4,0.7,47,0.00,,,0.00,WUHU216HW,2013-06-08 00:04:00,
2013-06-07 19:09:00,68.8,47.6,29.88,NNE,23,0.0,0.7,47,0.00,,,0.00,WUHU216HW,2013-06-08 00:09:00,
2013-06-07 19:14:00,68.6,47.5,29.88,NNW,338,0.0,0.4,47,0.00,,,0.00,WUHU216HW,2013-06-08 00:14:00,
2013-06-07 19:19:00,68.0,47.0,29.88,WNW,293,0.0,0.7,47,0.00,,,0.00,WUHU216HW,2013-06-08 00:19:00,
2013-06-07 19:24:00,67.9,46.8,29.88,NW,315,0.0,0.7,47,0.00,,,0.00,WUHU216HW,2013-06-08 00:24:00,
2013-06-07 19:29:00,67.7,47.3,29.88,NNW,338,0.2,0.7,48,0.00,,,0.00,WUHU216HW,2013-06-08 00:29:00,
2013-06-07 19:34:00,67.3,47.5,29.88,NNW,338,0.0,0.7,49,0.00,,,0.00,WUHU216HW,2013-06-08 00:34:00,
2013-06-07 19:40:00,67.0,47.8,29.88,NNW,338,0.0,0.0,50,0.00,,,0.00,WUHU216HW,2013-06-08 00:40:00,
2013-06-07 19:45:00,66.6,47.5,29.88,NNW,338,0.0,0.7,50,0.00,,,0.00,WUHU216HW,2013-06-08 00:45:00,
2013-06-07 19:50:00,66.2,47.6,29.88,NNW,338,0.0,0.7,51,0.00,,,0.00,WUHU216HW,2013-06-08 00:50:00,
2013-06-07 19:55:00,65.9,47.8,29.88,NNW,338,0.0,0.4,52,0.00,,,0.00,WUHU216HW,2013-06-08 00:55:00,
2013-06-07 20:00:00,65.5,47.4,29.88,NNW,338,0.0,0.4,52,0.00,,,0.00,WUHU216HW,2013-06-08 01:00:00,
2013-06-07 20:05:00,65.0,47.9,29.89,NNW,338,0.0,0.0,54,0.00,,,0.00,WUHU216HW,2013-06-08 01:05:00,
2013-06-07 20:10:00,64.4,48.2,29.89,NNW,338,0.2,0.4,56,0.00,,,0.00,WUHU216HW,2013-06-08 01:10:00,
2013-06-07 20:16:00,63.9,48.2,29.89,NNW,338,0.2,0.7,57,0.00,,,0.00,WUHU216HW,2013-06-08 01:16:00,
2013-06-07 20:21:00,63.0,49.3,29.89,NW,315,0.0,0.7,61,0.00,,,0.00,WUHU216HW,2013-06-08 01:21:00,
2013-06-07 20:26:00,62.5,49.2,29.89,NW,315,0.0,0.7,62,0.00,,,0.00,WUHU216HW,2013-06-08 01:26:00,
2013-06-07 20:31:00,61.7,48.6,29.89,NW,315,0.0,0.4,62,0.00,,,0.00,WUHU216HW,2013-06-08 01:31:00,
2013-06-07 20:37:00,61.2,49.0,29.89,NW,315,0.0,0.0,64,0.00,,,0.00,WUHU216HW,2013-06-08 01:37:00,
2013-06-07 20:42:00,60.5,47.9,29.89,NW,315,0.0,0.0,63,0.00,,,0.00,WUHU216HW,2013-06-08 01:42:00,
2013-06-07 20:47:00,59.9,47.4,29.89,NW,315,0.0,0.0,63,0.00,,,0.00,WUHU216HW,2013-06-08 01:47:00,
2013-06-07 20:52:00,59.4,47.2,29.89,NW,315,0.0,0.0,64,0.00,,,0.00,WUHU216HW,2013-06-08 01:52:00,
2013-06-07 20:57:00,59.0,46.8,29.89,NW,315,0.0,0.0,64,0.00,,,0.00,WUHU216HW,2013-06-08 01:57:00,
2013-06-07 21:02:00,58.7,46.9,29.89,NW,315,0.0,0.0,65,0.00,,,0.00,WUHU216HW,2013-06-08 02:02:00,
2013-06-07 21:07:00,58.3,47.3,29.89,NW,315,0.0,0.0,67,0.00,,,0.00,WUHU216HW,2013-06-08 02:07:00,
2013-06-07 21:12:00,58.0,47.9,29.89,NW,315,0.0,0.0,69,0.00,,,0.00,WUHU216HW,2013-06-08 02:12:00,
2013-06-07 21:17:00,57.6,47.9,29.89,NW,315,0.0,0.0,70,0.00,,,0.00,WUHU216HW,2013-06-08 02:17:00,
2013-06-07 21:22:00,57.6,48.2,29.89,NW,315,0.0,0.0,71,0.00,,,0.00,WUHU216HW,2013-06-08 02:22:00,
2013-06-07 21:28:00,57.4,48.1,29.89,NW,315,0.0,0.0,71,0.00,,,0.00,WUHU216HW,2013-06-08 02:28:00,
2013-06-07 21:33:00,57.2,47.9,29.89,NW,315,0.0,0.0,71,0.00,,,0.00,WUHU216HW,2013-06-08 02:33:00,
2013-06-07 21:38:00,56.9,47.5,29.89,NW,315,0.0,0.0,71,0.00,,,0.00,WUHU216HW,2013-06-08 02:38:00,
2013-06-07 21:43:00,56.5,48.0,29.90,NW,315,0.0,0.0,73,0.00,,,0.00,WUHU216HW,2013-06-08 02:43:00,
2013-06-07 21:48:00,56.2,48.0,29.89,NW,315,0.0,0.4,74,0.00,,,0.00,WUHU216HW,2013-06-08 02:48:00,
2013-06-07 21:53:00,55.8,47.6,29.90,NW,315,0.0,0.4,74,0.00,,,0.00,WUHU216HW,2013-06-08 02:53:00,
2013-06-07 21:58:00,55.6,47.4,29.90,NW,315,0.0,0.0,74,0.00,,,0.00,WUHU216HW,2013-06-08 02:58:00,
2013-06-07 22:03:00,55.3,47.1,29.90,NW,315,0.0,0.0,74,0.00,,,0.00,WUHU216HW,2013-06-08 03:03:00,
2013-06-07 22:09:00,54.5,46.5,29.90,NW,315,0.0,0.0,74,0.00,,,0.00,WUHU216HW,2013-06-08 03:09:00,
2013-06-07 22:14:00,54.0,46.3,29.90,NW,315,0.0,0.0,75,0.00,,,0.00,WUHU216HW,2013-06-08 03:14:00,
2013-06-07 22:19:00,53.6,45.9,29.90,NW,315,0.0,0.0,75,0.00,,,0.00,WUHU216HW,2013-06-08 03:19:00,
2013-06-07 22:24:00,53.5,45.7,29.90,NW,315,0.0,0.0,75,0.00,,,0.00,WUHU216HW,2013-06-08 03:24:00,
2013-06-07 22:30:00,53.5,46.8,29.90,NW,315,0.0,0.0,78,0.00,,,0.00,WUHU216HW,2013-06-08 03:30:00,
2013-06-07 22:35:00,53.3,46.6,29.90,NW,315,0.0,0.0,78,0.00,,,0.00,WUHU216HW,2013-06-08 03:35:00,
2013-06-07 22:40:00,53.5,47.5,29.90,NW,315,0.0,0.0,80,0.00,,,0.00,WUHU216HW,2013-06-08 03:40:00,
2013-06-07 22:45:00,53.3,47.3,29.90,NW,315,0.0,0.0,80,0.00,,,0.00,WUHU216HW,2013-06-08 03:45:00,
2013-06-07 22:50:00,53.3,47.3,29.90,NW,315,0.0,0.0,80,0.00,,,0.00,WUHU216HW,2013-06-08 03:50:00,
2013-06-07 22:55:00,52.9,47.0,29.90,East,90,0.2,1.1,80,0.00,,,0.00,WUHU216HW,2013-06-08 03:55:00,
2013-06-07 23:01:00,52.9,47.0,29.90,East,90,0.0,1.1,80,0.00,,,0.00,WUHU216HW,2013-06-08 04:01:00,
2013-06-07 23:02:00,52.9,47.0,29.90,NW,315,0.2,1.1,80,0.00,,,0.00,WUHU216HW,2013-06-08 04:02:00,
2013-06-07 23:07:00,52.7,47.4,29.90,NW,315,0.0,1.1,82,0.00,,,0.00,WUHU216HW,2013-06-08 04:07:00,
2013-06-07 23:12:00,52.4,46.7,29.90,NW,315,0.0,1.1,81,0.00,,,0.00,WUHU216HW,2013-06-08 04:12:00,
2013-06-07 23:17:00,52.2,46.9,29.90,NW,315,0.0,0.0,82,0.00,,,0.00,WUHU216HW,2013-06-08 04:17:00,
2013-06-07 23:22:00,52.0,46.7,29.90,NW,315,0.0,0.0,82,0.00,,,0.00,WUHU216HW,2013-06-08 04:22:00,
2013-06-07 23:27:00,51.7,46.4,29.90,NW,315,0.0,0.0,82,0.00,,,0.00,WUHU216HW,2013-06-08 04:27:00,
2013-06-07 23:32:00,51.5,46.2,29.90,NW,315,0.0,0.0,82,0.00,,,0.00,WUHU216HW,2013-06-08 04:32:00,
2013-06-07 23:37:00,51.5,46.2,29.90,NW,315,0.0,0.0,82,0.00,,,0.00,WUHU216HW,2013-06-08 04:37:00,
2013-06-07 23:42:00,51.3,46.3,29.90,NW,315,0.0,0.0,83,0.00,,,0.00,WUHU216HW,2013-06-08 04:42:00,
2013-06-07 23:47:00,50.9,45.9,29.90,NW,315,0.0,0.0,83,0.00,,,0.00,WUHU216HW,2013-06-08 04:47:00,
2013-06-07 23:52:00,50.8,45.7,29.89,NW,315,0.0,0.0,83,0.00,,,0.00,WUHU216HW,2013-06-08 04:52:00,
2013-06-07 23:57:00,50.4,45.4,29.90,NW,315,0.0,0.0,83,0.00,,,0.00,WUHU216HW,2013-06-08 04:57:00,